Regional Weather Roundup
Issued by NWS

Home | Current Version | Previous Version | Text Only | Print | Product List | Glossary Off
Versions: 1 2 3 4 5 6 7 8 9 10 11 12 13 14 15 16 17 18 19 20 21 22 23 24 25 26 27 28 29 30 31 32 33 34 35 36 37 38 39 40 41 42 43 44 45 46 47 48 49 50

000
ASUS43 KIND 181509
RWRIN

WEATHER ROUNDUP FOR INDIANA
NATIONAL WEATHER SERVICE INDIANAPOLIS IN
1000 AM EST SAT NOV 18 2017

NOTE: "FAIR" INDICATES FEW OR NO CLOUDS BELOW 12,000 FEET WITH NO
SIGNIFICANT WEATHER AND/OR OBSTRUCTIONS TO VISIBILITY.

* - STATION DOES NOT REPORT WEATHER SUCH AS PRECIPITATION OR FOG.

+ - STATION NOT QUALITY CONTROLLED BY THE NATIONAL WEATHER SERVICE.
    USE DATA WITH CAUTION...ESPECIALLY DEWPOINT AND RELATIVE
    HUMIDITY OBSERVATIONS.

INZ001>003-010>013-019-020-181600-
NORTHWEST INDIANA

CITY           SKY/WX    TMP DP  RH WIND       PRES   REMARKS
GARY /AIRPORT/ RAIN      46  46 100 N23       29.43F
KNOX *+        CLOUDY    45  45 100 N8        29.38F
LA PORTE +     LGT RAIN  44  44  99 E7        29.38F
MICHIGAN CITY+ LGT RAIN  45  45 100 NE3       29.40F
MONTICELLO +   HVY RAIN  51  49  95 E8        29.34F
RENSSELAER +   RAIN      46  45  93 NE13      29.33F
VALPARAISO     LGT RAIN  47  46  97 NE7       29.38F FOG

$$

LMZ046-743>745-181600-
SOUTHERN LAKE MICHIGAN

STATION/POSITION TIME  TEMP    WIND        PRES    WAVE
                       AIR SEA DIR/SP/G            HT
                 (UTC) (F)     (DEG/KT/KT) (MB)    (FT)
BURNS HARBOR     1500   46      20/ 21/ 25  996.6F
MICHIGAN CITY    1440   45      30/ 18/ 19   N/A

$$

INZ004-005-014>016-021>024-181600-
NORTH CENTRAL INDIANA

CITY           SKY/WX    TMP DP  RH WIND       PRES   REMARKS
ELKHART        RAIN      45  45 100 CALM      29.43F
GOSHEN         HVY RAIN  47  44  90 CALM      29.42F FOG
LOGANSPORT +   HVY RAIN  50  50 100 NE7       29.37F
PERU/GRISSOM   TSTM      51  51 100 E9        29.36F FOG
ROCHESTER +    RAIN      50  50 100 E9        29.36F
SOUTH BEND     RAIN      44  44 100 E8        29.41F FOG
WARSAW +       RAIN      45  45 100 SE3       29.42F

$$

INZ006>009-017-018-025>027-181600-
NORTHEAST INDIANA

CITY           SKY/WX    TMP DP  RH WIND       PRES   REMARKS
AUBURN +       MIX PCPN  46  45  93 E5        29.43F
FORT WAYNE     TSTM      50  50 100 SE6       29.43F VSB 1
HUNTINGTON +   RAIN      51  49  95 E5        29.39F
KENDALLVILLE + RAIN      46  46 100 SE5       29.42F

$$

INZ028-029-035-036-043>045-051>053-181600-
WEST CENTRAL INDIANA

CITY           SKY/WX    TMP DP  RH WIND       PRES   REMARKS
CRAWFORDSVL +  CLOUDY    57  57 100 S20G25    29.32F
GREENCASTLE +  CLOUDY    61  55  82 S15G24    29.36F
LAFAYETTE      TSTM      53  53 100 NE10      29.29F FOG
TERRE HAUTE    CLOUDY    63  57  81 S20G33    29.34F

$$

INZ030>032-037>040-046>048-054>057-064-065-181600-
CENTRAL INDIANA

CITY           SKY/WX    TMP DP  RH WIND       PRES   REMARKS
ANDERSON       CLOUDY    54  54 100 S12       29.42F
CP ATTERBURY + CLOUDY    63  54  72 S15G25    29.42F
COLUMBUS       CLOUDY    59  52  77 S20G25    29.46F
FISHERS *+     CLOUDY    57  57 100 S8        29.37F
FRANKFORT +    CLOUDY    60  58  92 S13G21    29.34F
INDIANAPOLIS   CLOUDY    62  57  83 S20G31    29.36F
-EAGLE CREEK   CLOUDY    62  57  83 S12G17    29.36F
KOKOMO +       TSTM      52  52 100 SE8       29.36F FOG
MARION +       RAIN      51  50  95 SE15      29.39F VSB 1/2
MT COMFORT *+  CLOUDY    57  57 100 S9G16     29.39F
SHELBYVILLE    CLOUDY    61  52  72 S21G30    29.41F
ZIONSVILLE +   LGT RAIN  56  56  98 S7        29.37F

$$

INZ033-034-041-042-049-050-058-059-181600-
EAST CENTRAL INDIANA

CITY           SKY/WX    TMP DP  RH WIND       PRES   REMARKS
MUNCIE         CLOUDY    54  52  93 SE6       29.41F FOG
RICHMOND +     CLOUDY    55  52  88 S15       29.47F

$$

INZ060-061-067>069-081>083-085>088-181600-
SOUTHWEST INDIANA

CITY           SKY/WX    TMP DP  RH WIND       PRES   REMARKS
EVANSVILLE     CLOUDY    64  60  87 S16G25    29.51F
HUNTINGBURG +  LGT RAIN  61  58  90 S24       29.52F
WASHINGTON +   CLOUDY    64  56  75 S30G39    29.41F

$$

INZ062-063-066-070>080-084-089>092-181600-
SOUTH CENTRAL AND SOUTHEAST INDIANA

CITY           SKY/WX    TMP DP  RH WIND       PRES   REMARKS
BEDFORD +      CLOUDY    64  55  72 S24G32    29.43F
BLOOMINGTON    CLOUDY    64  56  75 S18G32    29.40F
MADISON *+     CLOUDY    61  52  72 S16G26    29.53F
NORTH VERNON + CLOUDY    59  54  82 S18G29    29.48F
SEYMOUR +      CLOUDY    63  54  72 S25G36    29.47F

$$





USA.gov is the U.S. government's official web portal to all federal, state and local government web resources and services.